Regional Weather Roundup
Issued by NWS

Home | Current Version | Previous Version | Graphics & Text | Print | Product List | Glossary On
Versions: 1 2 3 4 5 6 7 8 9 10 11 12 13 14 15 16 17 18 19 20 21 22 23 24 25 26 27 28 29 30 31 32 33 34 35 36 37 38 39 40 41 42 43 44 45 46 47 48 49 50
000
ASUS43 KIND 192359
RWRIN

WEATHER ROUNDUP FOR INDIANA
NATIONAL WEATHER SERVICE INDIANAPOLIS IN
800 PM EDT SAT APR 19 2014

NOTE: "FAIR" INDICATES FEW OR NO CLOUDS BELOW 12,000 FEET WITH NO
SIGNIFICANT WEATHER AND/OR OBSTRUCTIONS TO VISIBILITY.

* - STATION DOES NOT REPORT WEATHER SUCH AS PRECIPITATION OR FOG.

+ - STATION NOT QUALITY CONTROLLED BY THE NATIONAL WEATHER SERVICE.
    USE DATA WITH CAUTION...ESPECIALLY DEWPOINT AND RELATIVE
    HUMIDITY OBSERVATIONS.

INZ001>003-010>013-019-020-200100-
NORTHWEST INDIANA

CITY           SKY/WX    TMP DP  RH WIND       PRES   REMARKS
GARY /AIRPORT/ MOCLDY    55  39  54 CALM      30.23F
RENSSELAER +   PTCLDY    63  32  31 E9        30.24S
VALPARAISO     PTCLDY    61  34  36 SE9       30.25S
6HR MIN TEMP:  61; 6HR MAX TEMP:  66;


$$

LMZ046-743>745-200100-
SOUTHERN LAKE MICHIGAN

STATION/POSITION TIME  TEMP WIND        PRES
                       AIR  DIR/SP/G
                 (UTC) (F)  (DEG/KT/KT) (MB)
MICHIGAN CITY    2300   64  110/ 10/ 12   N/A

$$

INZ004-005-014>016-021>024-200100-
NORTH CENTRAL INDIANA

CITY           SKY/WX    TMP DP  RH WIND       PRES   REMARKS
GOSHEN         CLEAR     57  32  38 E9        30.28S
6HR MIN TEMP:  57; 6HR MAX TEMP:  64;

SOUTH BEND     CLEAR     61  33  35 SE10      30.28S
6HR MIN TEMP:  59; 6HR MAX TEMP:  64;


$$

INZ006>009-017-018-025>027-200100-
NORTHEAST INDIANA

CITY           SKY/WX    TMP DP  RH WIND       PRES   REMARKS
ANGOLA *+      CLEAR     54  28  37 E10       30.31S
FORT WAYNE     PTCLDY    54  28  36 E10       30.30S
6HR MIN TEMP:  54; 6HR MAX TEMP:  61;


$$

INZ028-029-035-036-043>045-051>053-200100-
WEST CENTRAL INDIANA

CITY           SKY/WX    TMP DP  RH WIND       PRES   REMARKS
GREENCASTLE +  CLEAR     63  39  42 E6        30.24S
LAFAYETTE      CLEAR     59  37  44 E10       30.24S
6HR MIN TEMP:  59; 6HR MAX TEMP:  67;

TERRE HAUTE    CLEAR     62  39  42 E7        30.21F
6HR MIN TEMP:  62; 6HR MAX TEMP:  72;


$$

INZ030>032-037>040-046>048-054>057-064-065-200100-
CENTRAL INDIANA

CITY           SKY/WX    TMP DP  RH WIND       PRES   REMARKS
COLUMBUS       CLEAR     64  36  34 NE8         N/A
INDIANAPOLIS   PTCLDY    63  36  36 E9        30.23F
6HR MIN TEMP:  63; 6HR MAX TEMP:  68;

-EAGLE CREEK   CLEAR     63  34  33 E9        30.23F
6HR MIN TEMP:  63; 6HR MAX TEMP:  67;

KOKOMO *+      CLEAR     59  34  38 E12       30.26S
MT COMFORT *+  CLEAR     61  37  41 E9        30.25F
SHELBYVILLE    CLEAR     65  36  34 E8        30.23F
6HR MIN TEMP:  65; 6HR MAX TEMP:  71;


$$

INZ033-034-041-042-049-050-058-059-200100-
EAST CENTRAL INDIANA

CITY           SKY/WX    TMP DP  RH WIND       PRES   REMARKS
MUNCIE         CLEAR     58  35  42 E12       30.27S
6HR MIN TEMP:  58; 6HR MAX TEMP:  63;


$$

INZ060-061-067>069-081>083-085>088-200100-
SOUTHWEST INDIANA

CITY           SKY/WX    TMP DP  RH WIND       PRES   REMARKS
EVANSVILLE     CLEAR     71  38  29 NE6       30.18S
6HR MIN TEMP:  71; 6HR MAX TEMP:  77;

HUNTINGBURG *+ CLEAR     66  39  37 NE9       30.19S
6HR MIN TEMP:  66; 6HR MAX TEMP:  73;


$$

INZ062-063-066-070>080-084-089>092-200100-
SOUTH CENTRAL AND SOUTHEAST INDIANA

CITY           SKY/WX    TMP DP  RH WIND       PRES   REMARKS
BLOOMINGTON    CLEAR     67  34  29 E8        30.22S
6HR MIN TEMP:  67; 6HR MAX TEMP:  73;


$$




USA.gov is the U.S. government's official web portal to all federal, state and local government web resources and services.